Location: Unspecified
(0.0000°N, 0.0000°E)
Time: 10:10:09
(UTC+01:00)

Resurs 01 Rocket - Visible Passes

Search period start: 31 October 2014 00:00
Search period end: 10 November 2014 00:00
Orbit: 637 x 645 km, 98.2° (Epoch: 30 October)

Date Brightness Start Highest point End Pass type
(mag) Time Alt. Az. Time Alt. Az. Time Alt. Az.
31 Oct 5.5 05:59:47 10° E 06:01:10 11° ESE 06:02:34 10° ESE visible
31 Oct 4.5 19:45:57 10° SSW 19:49:16 21° WSW 19:52:34 10° NW visible
03 Nov 2.9 19:19:54 10° S 19:24:09 47° WSW 19:28:24 10° NNW visible
04 Nov 5.6 05:58:53 10° E 05:59:46 11° ESE 06:00:39 10° ESE visible
04 Nov 4.4 19:44:26 10° SSW 19:47:51 22° WSW 19:51:17 10° NW visible
05 Nov 5.3 20:11:00 10° WSW 20:11:32 10° WSW 20:12:04 10° W visible
07 Nov 2.7 19:18:26 10° S 19:22:44 50° WSW 19:27:01 10° NNW visible
08 Nov 4.3 19:42:54 10° SSW 19:46:26 24° WSW 19:49:57 10° NW visible
09 Nov 5.2 20:08:54 10° WSW 20:10:06 11° WSW 20:11:19 10° W visible
